TimeMDT,TemperatureF,Dew PointF,Humidity,Sea Level PressureIn,VisibilityMPH,Wind Direction,Wind SpeedMPH,Gust SpeedMPH,PrecipitationIn,Events,Conditions,WindDirDegrees,DateUTC
12:53 AM,44.1,37.9,79,29.94,10.0,NW,18.4,23.0,N/A,,Overcast,310,2012-11-02 06:53:00
1:53 AM,42.1,37.0,82,29.98,10.0,Variable,3.5,-,N/A,,Partly Cloudy,0,2012-11-02 07:53:00
2:53 AM,41.0,37.0,86,29.99,10.0,NNE,3.5,-,N/A,,Partly Cloudy,30,2012-11-02 08:53:00
3:53 AM,37.9,36.0,93,30.01,10.0,SW,5.8,-,N/A,,Mostly Cloudy,230,2012-11-02 09:53:00
4:53 AM,36.0,34.0,93,30.01,10.0,SE,5.8,-,N/A,,Clear,140,2012-11-02 10:53:00
5:53 AM,32.0,30.9,96,30.01,10.0,WNW,8.1,-,N/A,,Clear,300,2012-11-02 11:53:00
6:53 AM,30.9,28.9,92,30.04,10.0,Calm,Calm,-,N/A,,Partly Cloudy,0,2012-11-02 12:53:00
7:53 AM,36.0,30.9,82,30.04,10.0,WNW,9.2,-,N/A,,Clear,300,2012-11-02 13:53:00
8:53 AM,44.1,34.0,68,30.06,10.0,NW,9.2,-,N/A,,Clear,310,2012-11-02 14:53:00
9:53 AM,48.9,35.1,59,30.06,10.0,NW,5.8,-,N/A,,Mostly Cloudy,310,2012-11-02 15:53:00
10:53 AM,50.0,35.1,57,30.04,10.0,WNW,8.1,-,N/A,,Overcast,290,2012-11-02 16:53:00
11:53 AM,52.0,33.1,49,30.06,10.0,NNW,10.4,-,N/A,,Overcast,330,2012-11-02 17:53:00
12:53 PM,53.1,30.9,43,30.06,10.0,NW,16.1,23.0,N/A,,Clear,320,2012-11-02 18:53:00
1:53 PM,55.9,30.0,37,30.05,10.0,NW,27.6,33.4,N/A,,Clear,310,2012-11-02 19:53:00
2:53 PM,55.9,28.9,36,30.04,10.0,NNW,27.6,33.4,N/A,,Clear,330,2012-11-02 20:53:00
3:53 PM,55.9,30.0,37,30.07,10.0,NNW,17.3,32.2,N/A,,Clear,330,2012-11-02 21:53:00
4:53 PM,54.0,28.9,38,30.09,10.0,NW,20.7,-,N/A,,Clear,320,2012-11-02 22:53:00
5:53 PM,45.0,30.9,58,30.14,10.0,NNW,4.6,-,N/A,,Clear,330,2012-11-02 23:53:00
6:53 PM,39.0,30.0,70,30.20,10.0,SW,4.6,-,N/A,,Clear,230,2012-11-03 00:53:00
7:53 PM,37.9,30.9,76,30.20,10.0,West,6.9,-,N/A,,Clear,260,2012-11-03 01:53:00
8:53 PM,33.1,28.9,85,30.19,10.0,Calm,Calm,-,N/A,,Clear,0,2012-11-03 02:53:00
9:53 PM,30.9,27.0,85,30.19,10.0,Calm,Calm,-,N/A,,Scattered Clouds,0,2012-11-03 03:53:00
10:53 PM,28.9,26.1,89,30.20,10.0,Calm,Calm,-,N/A,,Clear,0,2012-11-03 04:53:00
11:53 PM,32.0,28.9,88,30.18,10.0,SSW,3.5,-,N/A,,Clear,210,2012-11-03 05:53:00